THORAD AGENA D DEB, 4998

Orbit data source: Space-Track

THORAD AGENA D DEB, 4998 is space debris in SSO originally from a launch on Wed, 08 Apr 1970 UTC launched from the Air Force Western Test Range (AFWTR). Debris objects in space refer to the collection of defunct objects orbiting the Earth. Examples of debris include non-operational satellites, rocket bodies, and fragments generated from explosions, collisions, or faulty payload assembly.

Loading next visibility...
Identifier
4998, 1970-025HU
Orbit
SSO
Country
Flag of USUS
Related business
Manufacturer
Unknown
Mission
Spacecraft
Bus & Motor
Unknown
Mass
Unknown
Launch date (UTC)
1970-04-08 (56 years ago)
Launch vehicle
Unknown
Launch site
Air Force Western Test Range (AFWTR)
Object type
Payload
Rocket body
Debris
Shape & HBR
Unknown shape, 0.1 m
Radar Cross Section
Small (<0.1 m²)

Expand to show TLE details & history
Last TLE update: 7 hours ago

TLE from 7 hours ago
0 THORAD AGENA D DEB
1 04998U 70025HU  26095.57633883  .00000009  00000-0  84482-4 0  9998
2 04998 100.1865  86.0085 0008854 257.4341 226.2836 13.53077294763423
Epoch: 2026-04-05T13:49Z
TLE epoch observation values (Epoch: 2026-04-05T13:49:55.674Z)
Latitude
55.11993°
Longitude
-120.49436°
Altitude
1,074.536 km
Speed
7.318 km/s
True Right ascension
18h 43m 28s
True Declination
54° 57' 55"
Sunlit
Object was in daylight at epoch
Visualization orbit readout
Latitude
Unknown
Longitude
Unknown
Altitude
Unknown
Speed
Unknown
Apparent Right ascension
Unknown
Apparent Declination
Unknown
Sunlit
N/A
Visualization observer readout
Local Sidereal Time
03:00:39
Azimuth
Unknown
Elevation
Unknown
Doppler factor
Unknown
Orbital elements
Apogee altitude
1,064.865 km
Perigee altitude
1,051.697 km
Semi-major axis
7,436.418 km
Eccentricity
0.00089
Inclination
100.1865°
RAAN
86.0085°
Arg. of periapsis
257.4341°
True anomaly
226.21032°
Mean anomaly
226.2836°
Eccentric anomaly
226.24696°
Mean motion
3.38452 °/min
Orbital period
106.37 mins
BSTAR
0.000084482
Loading maneuver chart data...
Computing Atmospheric mass density...

Documentation

Showing up to 5 results
|